Location: Blienschwiller
(48.3416°N, 7.4182°E)
Time: 11:45:08
(UTC+00:00)

Spot 2 - Pass Details

Date: 18 February 2020
Orbit: 570 x 773 km, 98.7° (Epoch: 09 April)

Event Time Altitude Azimuth Distance (km) Brightness Sun altitude
Rises 04:37:15 0° 8° (N) 2,790 7.6 -19.9°
Reaches altitude 10° 04:39:28 10° 0° (N) 1,894 6.6 -19.6°
Enters shadow 04:42:54 38° 306° (NW) 903 4.5 -19.0°
